Location: Hawks Ness
(60.2333°N, 1.1667°W)
Time: 16:05:26
(UTC+00:00)

Cosmos 2322 Rocket - Pass Details

Date: 22 October 2019
Orbit: 833 x 850 km, 71.0° (Epoch: 17 November)

Event Time Altitude Azimuth Distance (km) Brightness Sun altitude
Exits shadow 06:13:11 - 299° (WNW) 2,774 4.3 -6.6°
Reaches altitude 10° 06:14:10 10° 305° (NW) 2,456 4.1 -6.4°
Maximum altitude 06:18:58 28° 3° (N) 1,538 3.5 -5.9°
Drops below altitude 10° 06:23:47 10° 62° (ENE) 2,460 5.4 -5.3°
Sets 06:26:35 0° 74° (ENE) 3,397 6.5 -4.9°
